User: anonymous   Login
Location: Bridgewater Hill Observatory
(43.5992°N, 72.6989°W)
Time: 10:41:32
(UTC-05:00)
Language:

Cosmos 1452 Rocket - Orbit

View from above orbital plane
View from above orbital plane
View from above satellite
View from above satellite

Ground track
Ground track

The orbit data is extracted from the following two-line orbital elements,

1 13992U 83031B   14355.15581567  .00000395  00000-0  14548-3 0  5881
2 13992 074.0525 234.1718 0003963 077.8746 035.5202 14.35846600658323
Epoch (UTC): 21 December 2014 03:44:22
Eccentricity: 0.0003963
inclination: 74.0525°
perigee height: 769 km
apogee height: 775 km
right ascension of ascending node: 234.1718°
argument of perigee: 77.8746°
revolutions per day: 14.35846600
mean anomaly at epoch: 35.5202°
orbit number at epoch: 65832

The dashed part of the orbit path shows where the satellite is in the earth's shadow,  

DLR